sat.trackr.live / text

‹ back to catalog

STARLINK-32007

NORAD 60094 · 2024-117D

PAYLOAD ACTIVE UNKNOWN

§ Identity

Operator
Country
US
Launch date
2024-06-23
Launch site
AFETR
Launch vehicle
Mass (kg)
RCS (m²)

Purposes: comms

External: N2YO · Heavens-Above · Gunter

§ Orbital elements

Epoch: 2026-09-21T13:01:09.607584Z

Period
93.85 min
Inclination
53.1617°
Eccentricity
0.0001392
Mean motion
15.34371932 rev/d
Perigee alt
461.8 km
Apogee alt
463.7 km
Semi-major
6,840.9 km
B*
-5.6130e-5
RAAN
204.4892°
Arg perigee
90.2202°
Mean anomaly
269.8960°
Rev number
12,691

§ Raw data

STARLINK-320071 60094U 24117D   26264.54247231 -.00002270  00000+0 -56130-4 0  99932 60094  53.1617 204.4892 0001392  90.2202 269.8960 15.34371932126910

JSON: /api/v1/satellites/60094 · /tle

For live sub-satellite position, see the globe view (requires WebGL).

§ Visibility from observer

Set your observer location to see the next 7 days of passes ≥ 10°. The values pass through the URL so the page stays shareable.

No JS? Fill the form by hand. The geolocation button needs JavaScript.